Location: Possagno
(45.8500°N, 11.8667°E)
Time: 04:16:10
(UTC+00:00)

Cosmos 2366 rocket - Pass Details

Date: 07 June 2020
Orbit: 955 x 997 km, 82.9° (Epoch: 07 July)

Event Time Altitude Azimuth Distance (km) Brightness Sun altitude
Exits shadow 02:17:30 - 187° (S) 3,182 6.2 -9.4°
Reaches altitude 10° 02:18:45 10° 188° (S) 2,717 5.8 -9.3°
Maximum altitude 02:25:00 87° 278° (W) 992 4.1 -8.5°
Drops below altitude 10° 02:31:22 10° 8° (N) 2,762 7.2 -7.8°
Sets 02:33:54 0° 9° (N) 3,720 8.0 -7.4°
